Location: Birmingham
(37.5678°N, 89.5290°W)
Time: 23:11:03
(UTC+00:00)

Daily predictions for brighter satellites

Satellite Brightness Start Highest point End
(mag) Time Altitude Azimuth Time Altitude Azimuth Time Altitude Azimuth
Cosmos 1733 0.8 12:02:05 10° S 12:03:41 89° W 12:05:18 10° N
Helios 1A Rocket 2.9 12:00:36 10° S 12:03:42 37° W 12:06:50 10° NNW
BREEZE-M DEB (TANK) 2.2 12:02:59 10° SW 12:05:47 81° NW 12:08:12 10° NE
Cosmos 2026 Rocket 4.3 12:00:11 10° SW 12:05:47 39° WNW 12:11:27 10° N
Cosmos 2082 Rocket 3.9 12:06:06 12° NW 12:06:06 12° NW 12:07:58 10° NNW
Cosmos 1626 Rocket 3.5 12:02:01 10° S 12:06:25 80° W 12:10:50 10° N
SL-16 R/B 2.2 12:03:20 10° NNW 12:08:56 63° WSW 12:14:31 10° S
Cosmos 1937 Rocket 4.3 12:08:11 10° NW 12:12:30 28° W 12:16:51 10° SSW
SL-4 R/B 3.8 12:18:47 10° NNW 12:20:36 14° NNE 12:22:24 10° ENE
ARIANE 5 R/B 3.3 12:16:22 10° NNE 12:21:32 60° ESE 12:26:39 10° S
IRIDIUM 104 4.4 12:18:23 10° SSW 12:23:32 61° W 12:28:42 10° N
COSMO-SKYMED 1 3.7 12:21:07 10° SSW 12:24:23 23° W 12:27:39 10° NW
ISS -0.1 12:23:01 10° SSE 12:24:23 12° SE 12:25:44 10° ESE
USA 267 4.4 12:20:27 10° NE 12:26:45 48° SE 12:33:00 10° SSW
Cosmos-2242 3.6 12:23:16 10° NNW 12:27:04 33° W 12:30:50 10° SSW
OAO 2 Rocket 4.0 12:23:10 10° WSW 12:28:12 54° SSE 12:33:09 10° E
Okean 1-7 Rocket 4.1 12:27:58 10° S 12:32:25 67° E 12:36:54 10° NNE
Cosmos 2278 4.1 12:27:13 10° NW 12:32:35 45° WSW 12:37:54 10° S
BREEZE-M DEB (TANK) 3.7 12:31:25 10° NW 12:34:49 52° NNE 12:44:27 10° ESE
Cosmos 1553 Rocket 4.1 12:28:39 10° NNW 12:34:57 61° W 12:41:14 10° S
ATLAS 2AS CENTAUR R/B 2.8 12:31:20 10° SW 12:38:28 79° WNW 12:45:25 10° NNE
Gbstr 26 Del rocket 2.8 22:59:57 10° SW 23:04:18 83° SE 23:08:08 10° NE
Landsat 7 4.3 23:02:26 10° SE 23:06:39 36° ENE 23:10:54 10° N
UNK 3.7 23:03:41 10° NNE 23:08:16 74° ESE 23:12:48 10° S
Cosmos 1570 Rocket 4.1 23:05:54 10° NNW 23:11:16 89° ENE 23:16:33 10° SSE
Cosmos 1486 Rocket 4.3 23:09:32 10° SSW 23:14:42 69° WNW 23:19:55 10° NNE
Cosmos 2279 Rocket 4.5 23:12:46 10° SSW 23:18:56 66° W 23:25:08 10° N
Cosmos 1743 2.2 23:16:21 10° N 23:19:34 62° E 23:22:45 10° SSE
Aureole 1 Rocket 4.5 23:22:49 10° SE 23:25:41 19° E 23:28:37 11° NE
Cosmos 773 Rocket 4.0 23:21:33 10° NNW 23:26:48 87° ENE 23:32:03 10° SSE
Cosmos 2098 Rocket 3.6 23:23:09 10° SSW 23:26:53 57° W 23:31:20 10° N
Cosmos 1825 Rocket 4.3 23:24:06 10° NNE 23:27:57 30° ENE 23:31:44 10° SE
Cosmos 1758 Rocket 4.0 23:26:04 10° NNW 23:30:19 65° W 23:34:33 10° S
Cosmos 2297 Rocket 2.2 23:25:03 10° NNW 23:30:42 68° ENE 23:36:19 10° SSE
NOSS 2-3 (C) 3.5 23:28:02 10° S 23:31:25 40° ESE 23:34:00 15° NE
Cosmos 2151 2.8 23:27:52 10° N 23:32:01 72° E 23:36:10 10° SSE
IRIDIUM 106 4.3 23:26:49 10° N 23:32:03 73° E 23:37:14 10° S
Cosmos 990 Rocket 4.0 23:28:22 10° S 23:33:24 63° ESE 23:38:30 10° NNE
ARIANE 5 R/B 2.4 23:29:24 10° SSE 23:34:24 70° ENE 23:39:29 10° N
IRS-P3 4.3 23:31:12 10° SE 23:36:18 50° ENE 23:41:25 10° N
USA 238 DEB 3.8 23:31:19 10° S 23:36:55 45° ESE 23:42:19 13° NE
USA 238 3.8 23:31:26 10° S 23:37:02 44° ESE 23:42:24 13° NE
Cosmos 2058 Rocket 4.2 23:37:41 10° SE 23:41:13 23° E 23:43:31 16° NE
Cosmos 1933 3.2 23:41:11 10° S 23:45:00 87° W 23:48:51 10° N
SPOT 1/Viking Rocket 3.9 23:40:33 10° SE 23:45:22 41° ENE 23:50:13 10° N
SJ-12 3.6 23:43:38 10° SSE 23:47:23 89° E 23:51:11 10° NNW
Meteor 1-25 Rocket 4.2 23:42:38 10° N 23:48:27 69° E 23:54:09 10° SSE
BlueWalker 3 1.8 23:45:47 10° NW 23:49:25 82° SW 23:53:02 10° SE
Cosmos 1607 3.9 23:43:14 10° NNW 23:49:29 73° ENE 23:55:47 10° SE
SAR-Lupe-3 3.5 23:47:41 14° NNE 23:49:44 87° W 23:52:14 10° SSW
Cosmos 1980 Rocket 2.5 23:45:27 10° S 23:50:49 46° ESE 23:55:10 15° NE
Hubble Space Telescope 3.0 23:51:34 10° S 23:53:04 12° SSE 23:54:33 10° SE
AQUARIUS 4.0 23:49:14 10° SSE 23:53:38 85° ENE 23:58:03 10° N
Cosmos 1076 Rocket 3.9 23:51:47 10° N 23:55:49 39° E 23:59:52 10° SSE
